Content
SEND FEEDBACK

Daily
Averages
Monthly
Summary
United Kingdom

RICHMOND, ENGLAND


Home > Europe > United Kingdom > England
Elevation: 131 feet     Latitude: 51 33N     Longitude: 000 25W

WEATHER
 
SELECT A DAY
Number of Records: 148,803;   Date Range: 7/1/96 - 7/28/14
 
SHARE

PRINT THIS DATA

[ ← Previous Day ]
WEATHER ALMANAC - SEPTEMBER 18, 2013
[ Next Day → ]
[ °C ]   °F
Weather ElementAverageHighLow
Temperature54.3 °F59 °F (2:50 pm)48.2 °F (11:50 pm)
Dewpoint45.1 °F51.8 °F (1:50 am)41 °F (3:50 pm)
Humidity70.8 %94 % (1:50 am)39 % (3:50 pm)
Barometer29.65 in29.86 in (9:50 pm)29.44 in (1:50 am)
Wind Speed7.9 mph15 mph (3:50 pm)
Weather ElementAverage
Visibility10.7 mi
Wind DirectionNW (312.9 °)

Weather ElementTotal
Precipitation---
Heating Degree Days11.4 (Base 65)
Growing Degree Days3.6 (Base 50)
Averaged from 31 records on September 18, 2013
WEATHER CONDITIONS BREAKOUT
WIND DIRECTION BREAKOUT
WEATHER BY HOUR - SEPTEMBER 18, 2013
[ °C ]   °F
Local TimeTemperatureDewpointHumidityBarometerVisibilityWind DirectionWind SpeedGust SpeedPrecipitationEventsConditions
1:50 AM53.6 °F51.8 °F94 %29.44 in6.2 miWNW (290°)4.6 mphMostly Cloudy
2:50 AM53.6 °F50.0 °F88 %29.44 in6.2 miNNW (340°)3.5 mphMostly Cloudy
3:50 AM52.0 °F49.0 °F88 %29.49 in12.0 miNorth (350°)3.5 mphScattered Clouds
3:50 AM51.8 °F50.0 °F94 %29.47 in6.2 miNorth (350°)3.5 mphMostly Cloudy
4:50 AM51.8 °F48.2 °F88 %29.47 in6.2 miNorth (350°)5.8 mphMostly Cloudy
5:50 AM51.8 °F48.2 °F88 %29.50 in6.2 miNW (310°)5.8 mphMostly Cloudy
6:50 AM51.0 °F47.0 °F83 %29.54 in9.0 miNNW (330°)3.5 mphMostly Cloudy
6:50 AM50.0 °F48.2 °F94 %29.53 in6.2 miNNW (330°)3.5 mphMostly Cloudy
7:50 AM50.0 °F46.4 °F87 %29.56 in6.2 miNW (310°)4.6 mphMostly Cloudy
8:50 AM51.8 °F46.4 °F82 %29.56 in6.2 miNW (320°)6.9 mphMostly Cloudy
9:50 AM54.0 °F47.0 °F68 %29.61 in16.0 miNW (320°)8.1 mphScattered Clouds
9:50 AM55.4 °F46.4 °F72 %29.59 in6.2 miNW (320°)8.1 mphScattered Clouds
10:23 AM57.2 °F46.4 °F67 %29.62 in6.2 miNW (310°)10.4 mphScattered Clouds
10:50 AM55.4 °F44.6 °F67 %29.62 in6.2 miNNW (330°)9.2 mphMostly Cloudy
11:50 AM57.2 °F44.6 °F63 %29.65 in6.2 miNW (320°)13.8 mphScattered Clouds
12:50 PM57.2 °F46.4 °F67 %29.65 in6.2 miNW (320°)10.4 mphMostly Cloudy
12:50 PM57.0 °F46.0 °F57 %29.67 in31.0 miNW (320°)10.4 mphMostly Cloudy
1:50 PM57.2 °F44.6 °F63 %29.68 in6.2 miNW (320°)9.2 mphMostly Cloudy
2:50 PM59.0 °F44.6 °F59 %29.68 in6.2 miWNW (300°)10.4 mphMostly Cloudy
3:50 PM59.0 °F41.0 °F39 %29.72 in37.0 miWNW (300°)15.0 mphMostly Cloudy
3:50 PM59.0 °F41.0 °F51 %29.71 in6.2 miWNW (300°)15.0 mphMostly Cloudy
4:50 PM57.2 °F42.8 °F59 %29.71 in6.2 miWNW (300°)10.4 mphMostly Cloudy
5:50 PM57.2 °F41.0 °F55 %29.74 in6.2 miNW (320°)8.1 mphMostly Cloudy
6:50 PM57.2 °F41.0 °F55 %29.77 in6.2 miNW (310°)8.1 mphMostly Cloudy
6:50 PM56.0 °F41.0 °F46 %29.78 in37.0 miNW (310°)8.1 mphMostly Cloudy
7:50 PM53.6 °F42.8 °F67 %29.80 in6.2 miWNW (290°)5.8 mphMostly Cloudy
8:50 PM51.8 °F42.8 °F71 %29.83 inWest (280°)8.1 mphClear
9:50 PM52.0 °F42.0 °F60 %29.86 in37.0 miWNW (290°)10.4 mphMostly Cloudy
9:50 PM51.8 °F42.8 °F71 %29.83 in6.2 miWNW (290°)10.4 mphMostly Cloudy
10:50 PM51.8 °F42.8 °F71 %29.86 in6.2 miWest (280°)5.8 mphMostly Cloudy
11:50 PM48.2 °F42.8 °F82 %29.86 in6.2 miWNW (290°)5.8 mphPartly Cloudy
Hourly data recorded from EGWU, located miles away from Richmond, England







STORIES FROM OUR PARTNERS